Find Starlink 34309

NORAD ID: 64167 Int'l Des: 2025-112 Owner: SPXS Country: US Constellation: starlink operational
LEOCIRCULARRETROGRADESSO

現在のビュー

3D地球を読み込み中...

About Starlink 34309

Starlink 34309 (NORAD 64167) is a starlink constellation satellite (v2 mini) launched May 27, 2025 by SPXS of US. It operates in LEO, CIRCULAR, RETROGRADE, SSO orbit with a mass of 575.00 kg.

Starlink 34309について

説明を読み込み中...

次回通過

Passes for default location (London). Set your location on the main map for personalized predictions.

高度履歴

Loading altitude history...

軌道要素

1 64167U 25112X 26176.10435265 .00006863 00000-0 47889-3 0 9995
2 64167 97.3136 226.1822 0001367 103.8230 256.3150 15.05670603 59472
Epoch: Jun 25, 2026 • Age: 9 hours

現在のステータス

高度 564.8 km
速度 7.58 km/s
衛星直下点 -38.97°S, 44.75°W
打ち上げ日 May 27, 2025
運用期間 1 year
タイプ internet

技術仕様

分類 Payload
質量 575.00 kg
乾燥質量 530.00 kg
総質量 575.00 kg
長さ 0.30 m
直径 4.10 m
スパン 29.00 m
形状 Box + pan
製造者 SPXS
バスタイプ Starlink V2MO
フェーズステータス In Orbit
所有者/国 SPXS/US

Most Searched